NOAA 7 DEB

Satellite information

Favourite Embed

Satellite Type and Status

DEBRISIN ORBIT

Key statistics

Satellite NOAA 7 DEB at a glance.

Uptime

16245

Days in orbit

Revolutions

≈ 14.7

Per day

Orbit

SSO

Sun Synchronous Orbit

Inclination

98.9

Latest

Satellite identification and parameters

Extended collection of information and parameters for NOAA 7 DEB.

Object identification

Identified? True

Debris? True

Object name: NOAA 7 DEB

International designator: 1981-059B

Object number (NORAD): 12559

Object ID (CCSDS): 12559

Country: UNITED STATES OF AMERICA (US)

Current information (Y/N): Y

RCS size: SMALL

Orbital parameters

Period: 98.285 minutes

Inclination: 98.938 deg

SMA: 7054.815 km

Apoapsis: 678.796 km

Periapsis: 674.565 km

RAAN: 105.5051 deg

Eccentricy: 0.00029987

Argument of periapsis: 197.9798 deg

Mean anomaly: 185.6818 deg

Mean motion: 14.65123628 rev/day

Mean motion (dot): 0.00006163 rev/day2

B* drag term: 0.0011564164 1/REarth

Two-line elements (TLE)

Creation date: Dec. 14, 2025, 3:07 a.m.

Reference frame: TEME

Reference center: EARTH

Epoch: Dec. 13, 2025, 2:11 p.m. UTC

TLE line 0: 0 NOAA 7 DEB

TLE line 1: 1 12559U 81059B 25347.59101794 .00006163 00000-0 11564-2 0 9997

TLE line 2: 2 12559 98.9380 105.5051 0002999 197.9798 185.6818 14.65123628330558

Live tracking on map

Real-time ground track for satellite NOAA 7 DEB.

In-orbit conjunctions

A list of the most updated potential collisions computed for object NOAA 7 DEB.

Target Orbit TCA Probability of collision Miss distance Type
CZ-6A DEB LEO 2025-07-07 22:54:10 0.00088454 92.0 (m) DEBRIS
CZ-6A DEB LEO 2024-12-22 11:59:48 0.0003603818 66.0 (m) DEBRIS

Associated space launch

Third generation LEO meteorological satellite

NOAA 7 DEB was lifted into orbit during the mission ‘Atlas F | NOAA 7’, on board a Atlas F space rocket.

The launch took place on June 23, 1981, 10:52 a.m. from Space Launch Complex 3W.

For more information about the launch, click the button.

Launch to space Atlas F | NOAA 7
Atlas F | NOAA 7

Agency: N/A

Status: Launch Successful

Launch date: June 23, 1981, 10:52 a.m. UTC

Rocket: Atlas F

Launch pad: Space Launch Complex 3W

Location: Vandenberg SFB, CA, USA

...

Latest news about this satellite

There are no fresh news available about this satellite. Check back as we update our databases every day.


Newsletter sign-up

Weekly statistics, charts and insights to help you stay on top of the space industry.